Point Hope, AK

4:16 AM AKST on December 04, 2016 (GMT -0900)
Cape Lisburne LRRS

Weather History for PALU - March, 2013

Change the Weather History Date:

Saturday, March 2, 2013

  Actual Average Record
Temperature  
Mean Temperature -8 °F -  
Max Temperature -4 °F 1 °F 28 °F (2015)
Min Temperature -11 °F -6 °F -27 °F (2012)
Degree Days  
Heating Degree Days 72    
Moisture  
Dew Point -13 °F    
Average Humidity 79    
Maximum Humidity 86    
Minimum Humidity 71    
Precipitation  
Precipitation 0.00 in - - ()
Sea Level Pressure  
Sea Level Pressure 30.26 in    
Wind  
Wind Speed - (North)    
Max Wind Speed -    
Max Gust Speed -    
Visibility 10 miles    
Events      
Averages and records for this station are not official NWS values.
T = Trace of Precipitation, MM = Missing Value Source: NWS Daily Summary

Daily Weather History Graph

Daily Weather History Graph

Search for Another Location

Airport or City:

Trip Planner

Search our weather history database for the weather conditions in past years. The results will help you decide how hot, cold, wet, or windy it might be!

Date:

Astronomy

Mar. 02, 2013 Rise Set
Actual Time 9:20 AM AKST 7:14 PM AKST
Civil Twilight 8:21 AM AKST 8:13 PM AKST
Nautical Twilight 7:15 AM AKST 9:20 PM AKST
Astronomical Twilight 6:03 AM AKST 10:32 PM AKST
Moon 3:05 AM AKST (3/2) 8:44 AM AKST (3/2)
Length of Visible Light 11h 51m
Length of Day
9h 54m
Waning Gibbous, 72% of the Moon is Illuminated
Mar 2
Waning Gibbous
Mar 4
Last Quarter
Mar 11
New
Mar 19
First Quarter
Mar 27
Full

Hourly Weather History & Observations

Time (AKST) Temp. Dew Point Humidity Pressure Visibility Wind Dir Wind Speed Gust Speed Precip Events Conditions
12:55 AM -10.1 °F -16.2 °F 74% 30.24 in 10.0 mi North - - N/A   Clear
1:55 AM -6.7 °F -12.5 °F 76% 30.24 in 10.0 mi North - - N/A   Clear
3:55 AM -9.0 °F -14.4 °F 77% 30.24 in 10.0 mi North - - N/A   Clear
4:55 AM -8.5 °F -14.6 °F 75% 30.23 in 10.0 mi North - - N/A   Clear
5:55 AM -6.9 °F -13.5 °F 73% 30.23 in 10.0 mi North - - N/A   Clear
6:55 AM -5.3 °F -12.5 °F 71% 30.23 in 10.0 mi North - - N/A   Clear
7:55 AM -4.9 °F -11.2 °F 74% 30.23 in 10.0 mi North - - N/A   Clear
8:55 AM -7.4 °F -14.4 °F 71% 30.23 in 10.0 mi North - - N/A   Clear
9:55 AM -11.6 °F -17.1 °F 76% 30.24 in 10.0 mi North - - N/A   Clear
10:55 AM -11.0 °F -15.2 °F 82% 30.25 in 10.0 mi North - - N/A   Clear
11:55 AM -9.8 °F -13.5 °F 83% 30.29 in 10.0 mi North - - N/A   Clear
12:55 PM -7.6 °F -11.0 °F 85% 30.29 in 10.0 mi North - - N/A   Clear
1:55 PM -8.0 °F -12.3 °F 81% 30.29 in 10.0 mi North - - N/A   Clear
2:55 PM -7.4 °F -12.1 °F 80% 30.29 in 10.0 mi North - - N/A   Clear
3:55 PM -8.3 °F -12.5 °F 82% 30.28 in 10.0 mi North - - N/A   Clear
4:55 PM -7.4 °F -11.9 °F 81% 30.27 in 10.0 mi North - - N/A   Clear
5:55 PM -9.2 °F -13.2 °F 83% 30.27 in 10.0 mi North - - N/A   Clear
6:55 PM -8.3 °F -12.5 °F 82% 30.29 in 10.0 mi North - - N/A   Clear
7:55 PM -9.4 °F -13.2 °F 83% 30.29 in 10.0 mi North - - N/A   Clear
8:55 PM -9.9 °F -14.6 °F 80% 30.28 in 10.0 mi North - - N/A   Clear
9:55 PM -9.6 °F -13.0 °F 85% 30.27 in 10.0 mi North - - N/A   Clear
10:55 PM -9.6 °F -13.4 °F 83% 30.27 in 10.0 mi North - - N/A   Clear
11:55 PM -9.2 °F -12.5 °F 86% 30.25 in 10.0 mi North - - N/A   Clear